Date String (YYYY-MM-DD hh:mm:ss) UTC,Instrument flags,absolute air pressure of the measurement (hPa),sample flow rate (lpm),inlet stack bypass flow (lpm),air temperature of the measurement (°C),ambient temperature measured by the external sensor (°C),aerosol sample conditioner tube jacket temperature (°C),OPC LED temperature (°C),internal box temperature (°C),relative humidity of the measurement (%),span deviation,mass concentration of particles derived from Lorenz-Mie calculation of OPC scattering (μg/m³),mass concentration of particles derived from Lorenz-Mie calculation of OPC scattering (μg/m³),mass concentration of particles derived from Lorenz-Mie calculation of OPC scattering (μg/m³)
DateTimeUTC,F1_M11,P_M11,Q1_M11,Q2_M11,T1_M11,T2_M11,T3_M11,T4_M11,T5_M11,U1_M11,ZSPAN_M11,X0_M11,X2_M11,X1_M11
2023-08-03 23:00:00,SystemResetWarning,0831.9,5.00,000.00,032.1,027.6,000.0,040.0,031.7,33.7,0000.0,0009.67,0004.46,0003.76
2023-08-03 23:01:00,SystemResetWarning,0832.0,4.99,000.00,032.1,027.4,000.0,039.9,031.7,33.6,0000.0,0009.68,0004.47,0003.76
2023-08-03 23:02:00,SystemResetWarning,0831.9,5.00,000.00,032.0,026.0,000.0,039.8,031.5,32.1,0000.0,0009.71,0004.45,0003.74
2023-08-03 23:03:00,SystemResetWarning,0831.8,5.03,000.00,031.9,025.3,000.0,039.6,031.3,32.2,0000.0,0009.59,0004.45,0003.74
2023-08-03 23:04:00,SystemResetWarning,0831.9,4.99,000.00,031.8,025.4,000.0,039.6,031.2,32.9,0000.0,0009.95,0004.44,0003.74
2023-08-03 23:05:00,SystemResetWarning,0831.9,5.00,000.00,031.6,025.7,000.0,039.6,031.1,34.4,0000.0,0009.47,0004.47,0003.75
2023-08-03 23:06:00,SystemResetWarning,0831.8,4.99,000.00,031.5,026.2,000.0,039.6,031.2,35.1,0000.0,0009.56,0004.43,0003.75
2023-08-03 23:07:00,SystemResetWarning,0831.7,5.02,000.00,031.6,026.7,000.0,039.6,031.4,34.7,0000.0,0009.02,0004.40,0003.73
2023-08-03 23:08:00,SystemResetWarning,0831.7,4.96,000.00,031.7,027.1,000.0,039.6,031.6,34.5,0000.0,0009.08,0004.41,0003.72
2023-08-03 23:09:00,SystemResetWarning,0831.7,5.02,000.00,031.8,027.4,000.0,039.6,031.6,34.5,0000.0,0009.03,0004.38,0003.73
2023-08-03 23:10:00,SystemResetWarning,0831.7,4.99,000.00,031.8,027.7,000.0,039.6,031.7,34.6,0000.0,0009.02,0004.38,0003.73
2023-08-03 23:11:00,SystemResetWarning,0831.7,4.99,000.00,031.9,026.8,000.0,039.5,031.6,34.2,0000.0,0009.03,0004.38,0003.73
2023-08-03 23:12:00,SystemResetWarning,0831.6,4.99,000.00,031.8,025.6,000.0,039.4,031.3,34.8,0000.0,0009.70,0004.34,0003.73
2023-08-03 23:13:00,SystemResetWarning,0831.6,5.02,000.00,031.8,025.2,000.0,039.3,031.2,35.6,0000.0,0009.59,0004.30,0003.72
2023-08-03 23:14:00,SystemResetWarning,0831.6,5.01,000.00,031.9,025.5,000.0,039.3,031.2,35.7,0000.0,0009.49,0004.27,0003.71
2023-08-03 23:15:00,SystemResetWarning,0831.6,4.98,000.00,032.0,025.9,000.0,039.4,031.3,34.9,0000.0,0008.91,0004.23,0003.70
2023-08-03 23:16:00,SystemResetWarning,0831.6,5.00,000.00,032.2,026.3,000.0,039.4,031.5,33.8,0000.0,0008.73,0004.19,0003.69
2023-08-03 23:17:00,SystemResetWarning,0831.7,5.00,000.00,032.3,026.8,000.0,039.5,031.6,34.1,0000.0,0008.49,0004.15,0003.70
2023-08-03 23:18:00,SystemResetWarning,0831.7,5.01,000.00,032.4,027.2,000.0,039.6,031.7,34.5,0000.0,0008.40,0004.15,0003.70
2023-08-03 23:19:00,SystemResetWarning,0831.7,4.99,000.00,032.4,027.5,000.0,039.7,031.7,34.0,0000.0,0008.24,0004.15,0003.71
2023-08-03 23:20:00,SystemResetWarning,0831.7,4.99,000.00,032.4,027.8,000.0,039.7,031.8,34.1,0000.0,0008.15,0004.12,0003.69
2023-08-03 23:21:00,SystemResetWarning,0831.7,4.99,000.00,032.4,027.1,000.0,039.7,031.7,34.3,0000.0,0008.04,0004.08,0003.68
2023-08-03 23:22:00,SystemResetWarning,0831.7,5.00,000.00,032.4,025.8,000.0,039.6,031.5,34.2,0000.0,0007.97,0004.07,0003.67
2023-08-03 23:23:00,SystemResetWarning,0831.7,5.00,000.00,032.3,025.3,000.0,039.6,031.3,34.4,0000.0,0006.90,0004.02,0003.66
2023-08-03 23:24:00,SystemResetWarning,0831.6,5.01,000.00,032.2,025.5,000.0,039.6,031.1,35.9,0000.0,0006.90,0004.02,0003.66
2023-08-03 23:25:00,SystemResetWarning,0831.7,5.01,000.00,032.2,025.9,000.0,039.7,031.3,34.4,0000.0,0007.31,0004.04,0003.64
2023-08-03 23:26:00,SystemResetWarning,0831.8,4.99,000.00,032.2,026.3,000.0,039.7,031.4,33.9,0000.0,0007.52,0004.04,0003.63
2023-08-03 23:27:00,SystemResetWarning,0832.0,5.02,000.00,032.3,026.8,000.0,039.8,031.5,33.7,0000.0,0007.76,0004.05,0003.62
2023-08-03 23:28:00,SystemResetWarning,0832.0,4.98,000.00,032.3,027.2,000.0,039.8,031.6,34.4,0000.0,0007.65,0004.03,0003.61
2023-08-03 23:29:00,SystemResetWarning,0831.9,5.03,000.00,032.3,027.5,000.0,039.8,031.7,34.1,0000.0,0007.68,0004.03,0003.59
2023-08-03 23:30:00,SystemResetWarning,0831.7,4.97,000.00,032.4,027.6,000.0,039.9,031.8,34.0,0000.0,0007.80,0004.00,0003.57
2023-08-03 23:31:00,SystemResetWarning,0831.7,5.01,000.00,032.4,026.4,000.0,039.8,031.7,33.6,0000.0,0007.90,0004.03,0003.57
2023-08-03 23:32:00,SystemResetWarning,0831.7,5.01,000.00,032.4,025.3,000.0,039.7,031.4,33.8,0000.0,0008.20,0004.06,0003.57
2023-08-03 23:33:00,SystemResetWarning,0831.6,5.00,000.00,032.3,025.2,000.0,039.6,031.2,33.5,0000.0,0008.63,0004.07,0003.58
2023-08-03 23:34:00,SystemResetWarning,0831.6,5.00,000.00,032.0,025.5,000.0,039.7,031.1,33.8,0000.0,0008.80,0004.08,0003.58
2023-08-03 23:35:00,SystemResetWarning,0831.6,5.00,000.00,031.9,026.0,000.0,039.7,031.2,34.0,0000.0,0009.25,0004.11,0003.57
2023-08-03 23:36:00,SystemResetWarning,0831.6,5.00,000.00,031.8,026.4,000.0,039.7,031.3,34.3,0000.0,0009.12,0004.06,0003.57
2023-08-03 23:37:00,SystemResetWarning,0831.6,5.00,000.00,031.8,026.9,000.0,039.7,031.4,34.3,0000.0,0009.13,0004.07,0003.56
2023-08-03 23:38:00,SystemResetWarning,0831.6,4.99,000.00,031.8,027.2,000.0,039.7,031.5,34.3,0000.0,0008.90,0004.07,0003.55
2023-08-03 23:39:00,SystemResetWarning,0831.6,4.99,000.00,031.7,027.6,000.0,039.7,031.6,34.1,0000.0,0008.87,0004.04,0003.53
2023-08-03 23:40:00,SystemResetWarning,0831.5,5.00,000.00,031.7,027.7,000.0,039.7,031.7,34.9,0000.0,0008.97,0004.04,0003.52
2023-08-03 23:41:00,SystemResetWarning,0831.6,5.02,000.00,031.8,026.7,000.0,039.6,031.6,33.8,0000.0,0008.96,0004.02,0003.51
2023-08-03 23:42:00,SystemResetWarning,0831.6,4.98,000.00,031.7,025.4,000.0,039.4,031.3,33.8,0000.0,0008.96,0004.03,0003.51
2023-08-03 23:43:00,SystemResetWarning,0831.5,5.01,000.00,031.6,025.2,000.0,039.3,031.1,33.6,0000.0,0008.67,0003.99,0003.49
2023-08-03 23:44:00,SystemResetWarning,0831.6,5.01,000.00,031.4,025.5,000.0,039.3,031.0,32.9,0000.0,0008.19,0003.97,0003.49
2023-08-03 23:45:00,SystemResetWarning,0831.6,5.00,000.00,031.3,025.9,000.0,039.4,031.1,33.0,0000.0,0008.18,0003.98,0003.49
2023-08-03 23:46:00,SystemResetWarning,0831.6,5.00,000.00,031.3,026.4,000.0,039.4,031.2,33.3,0000.0,0007.75,0003.96,0003.48
2023-08-03 23:47:00,SystemResetWarning,0831.7,5.00,000.00,031.2,026.8,000.0,039.4,031.3,34.1,0000.0,0007.69,0003.99,0003.49
2023-08-03 23:48:00,SystemResetWarning,0831.7,5.01,000.00,031.2,027.2,000.0,039.4,031.4,34.2,0000.0,0007.57,0004.00,0003.50
2023-08-03 23:49:00,SystemResetWarning,0832.0,5.00,000.00,031.2,027.5,000.0,039.3,031.4,32.7,0000.0,0007.33,0003.95,0003.49
2023-08-03 23:50:00,SystemResetWarning,0831.8,4.99,000.00,031.2,027.8,000.0,039.3,031.5,32.7,0000.0,0007.32,0003.96,0003.50
2023-08-03 23:51:00,SystemResetWarning,0831.9,4.99,000.00,031.2,027.6,000.0,039.3,031.5,32.9,0000.0,0007.04,0003.96,0003.49
2023-08-03 23:52:00,SystemResetWarning,0832.0,5.00,000.00,031.1,026.2,000.0,039.1,031.3,31.4,0000.0,0006.78,0003.99,0003.50
2023-08-03 23:53:00,SystemResetWarning,0832.0,5.00,000.00,031.0,025.3,000.0,039.0,031.2,30.5,0000.0,0007.02,0004.01,0003.51
2023-08-03 23:54:00,SystemResetWarning,0832.0,5.01,000.00,030.9,025.3,000.0,038.9,031.0,31.2,0000.0,0007.37,0004.04,0003.50
2023-08-03 23:55:00,SystemResetWarning,0832.0,5.02,000.00,030.8,025.6,000.0,038.9,030.9,31.7,0000.0,0007.52,0004.07,0003.50
2023-08-03 23:56:00,SystemResetWarning,0832.0,5.00,000.00,030.7,026.1,000.0,038.9,031.0,31.9,0000.0,0007.40,0004.08,0003.50
2023-08-03 23:57:00,SystemResetWarning,0832.0,4.99,000.00,030.6,026.5,000.0,038.9,031.1,33.2,0000.0,0007.54,0004.10,0003.50
2023-08-03 23:58:00,SystemResetWarning,0832.1,5.00,000.00,030.6,026.9,000.0,038.9,031.2,32.7,0000.0,0007.69,0004.09,0003.49
2023-08-03 23:59:00,SystemResetWarning,0832.2,5.00,000.00,030.6,027.3,000.0,038.9,031.2,32.8,0000.0,0007.67,0004.07,0003.48
